Regional Weather Roundup
Issued by NWS Glasgow, MT

Home | Current Version | Previous Version | Text Only | Print | Product List | Glossary On
Versions: 1 2 3 4 5 6 7 8 9 10 11 12 13 14 15 16 17 18 19 20 21 22 23 24 25 26 27 28 29 30 31 32 33 34 35 36 37 38 39 40 41 42 43 44 45 46 47 48 49 50
000
ASUS45 KGGW 291015
RWRGGW
HOURLY REGIONAL WEATHER ROUNDUP FOR NORTHEAST MONTANA
NATIONAL WEATHER SERVICE GLASGOW MONTANA
400 AM MDT SAT APR 29 2017

NOTE: "FAIR" INDICATES FEW OR NO CLOUDS BELOW 12,000 FEET WITH NO
SIGNIFICANT WEATHER AND/OR OBSTRUCTIONS TO VISISBILITY.

NORTHEAST MONTANA


CITY           SKY/WX    TMP DP  RH WIND       PRES   REMARKS
GLASGOW        CLEAR     38  33  82 CALM      30.19R
PLENTYWOOD       N/A     32  30  93 N6          N/A
WOLF POINT     MOCLDY    33  30  88 W3        30.20R
JORDAN           N/A     29  25  85 CALM      30.19S
WINNETT          N/A     32  32 100 S2          N/A
SIDNEY         MOCLDY    33  23  66 S5        30.19S
GLENDIVE       PTCLDY    35  26  69 SW3       30.19S
MALTA            N/A     33  33 100 SW3         N/A

FORT PECK REPORTS


CITY           SKY/WX    TMP DP  RH WIND       PRES   REMARKS
FORT PECK        N/A     41  40  96 CALM        N/A
THE PINES        N/A     39  36  89 CALM        N/A

SOUTHEAST MONTANA


CITY           SKY/WX    TMP DP  RH WIND       PRES   REMARKS
BILLINGS       CLEAR     34  32  92 NW7       30.19S
MILES CITY     CLOUDY    34  28  79 NW6       30.18S
BAKER          CLOUDY    34  26  72 CALM      30.19S
LIVINGSTON     CLOUDY    36  34  92 W3        30.18S

CENTRAL MONTANA


CITY           SKY/WX    TMP DP  RH WIND       PRES   REMARKS
HAVRE          PTCLDY    29  27  92 SW7       30.18S
LEWISTOWN      CLEAR     28  26  92 S5        30.18S
GREAT FALLS    CLEAR     34  29  82 CALM      30.16F
CUT BANK       PTCLDY    32  30  92 CALM      30.13S
HELENA         CLOUDY    36  34  92 CALM      30.19R
BUTTE          MOCLDY    35  26  69 W6        30.18F
BOZEMAN        CLOUDY    35  33  92 S5        30.20S

WESTERN MONTANA


CITY           SKY/WX    TMP DP  RH WIND       PRES   REMARKS
MISSOULA       CLOUDY    37  32  82 CALM      30.26R
KALISPELL      NOT AVBL

NORTH DAKOTA


CITY           SKY/WX    TMP DP  RH WIND       PRES   REMARKS
WILLISTON      PTCLDY    36  26  67 S3        30.17S
DICKINSON      PTCLDY    29  19  66 S5        30.18S
MINOT          CLOUDY    37  25  61 SW8       30.19R
BISMARCK       CLEAR     30  22  72 CALM      30.24R

SOUTHERN SASKATCHEWAN


CITY           SKY/WX    TMP DP  RH WIND       PRES   REMARKS
REGINA         PTCLDY    32  32 100 S9        30.15F
ESTEVAN        PTCLDY    32  30  93 NW6       30.18R
SWIFT CURRENT  CLEAR     28  25  86 W8        30.14R




USA.gov is the U.S. government's official web portal to all federal, state and local government web resources and services.